This demonstration page uses our WeatherBlox Daily Observations layout. Learn more.

Left ArrowRight Arrow

Hourly Observations for March 3, 2019

Temp ( °F °C ) Dew Point ( °F °C ) Humidity (%) Winds ( mph kmh ) Pressure ( in mb ) Visibility ( mi km ) Precip ( " mm )
6:30 am 06:30 Cloudy 30 -1 25 -4 80 80 NNE 7 11 30.14 1021 10 16 N/A
6:45 am 06:45 Cloudy 30 -1 25 -4 80 80 N 7 11 30.14 1021 10 16 N/A
7:45 am 07:45 Cloudy 30 -1 23 -5 75 75 N 9 15 30.13 1020 10 16 N/A
8:45 am 08:45 Cloudy with Light Snow 30 -1 23 -5 75 75 N 14 22 30.16 1021 5 8 N/A
9:45 am 09:45 Cloudy with Light Snow 28 -2 25 -4 86 86 N 12 19 30.13 1020 1 2 N/A
10:45 am 10:45 Cloudy with Light Snow 28 -2 25 -4 86 86 N 14 22 30.10 1019 2 3 N/A
11:45 am 11:45 Cloudy with Light Snow 30 -1 27 -3 86 86 N 13 20 30.11 1020 2 2 N/A
12:45 pm 12:45 Cloudy with Light Snow 30 -1 27 -3 86 86 N 16 26 30.10 1019 1 2 N/A
1:45 pm 13:45 Cloudy with Light Snow 28 -2 25 -4 86 86 N 14 22 30.09 1019 2 2 N/A
2:15 pm 14:15 Cloudy with Light Snow 28 -2 25 -4 86 86 N 14 22 30.09 1019 1 1 N/A
2:30 pm 14:30 Cloudy with Light Snow 28 -2 25 -4 86 86 N 17 28 30.06 1018 1 2 N/A
2:55 pm 14:55 Windy with Snow Likely 28 -2 23 -5 80 80 N 20 31 30.06 1018 2 3 N/A
3:12 pm 15:12 Cloudy with Light Snow 28 -2 21 -6 74 74 N 13 20 30.08 1019 3 5 N/A
3:52 pm 15:52 Cloudy with Light Snow 28 -2 23 -5 80 80 N 14 22 30.10 1019 2 3 N/A
4:19 pm 16:19 Cloudy with Light Snow 28 -2 23 -5 80 80 NNW 13 20 30.10 1019 3 4 N/A
4:52 pm 16:52 Cloudy with Light Snow 27 -3 23 -5 86 86 N 14 22 30.10 1019 3 5 N/A
5:23 pm 17:23 Mostly Cloudy with Mist and Fog 27 -3 23 -5 86 86 N 10 17 30.10 1019 6 10 N/A
5:52 pm 17:52 Mostly Cloudy 27 -3 21 -6 80 80 N 9 15 30.10 1019 7 11 N/A
6:14 pm 18:14 Cloudy 27 -3 21 -6 80 80 N 10 17 30.10 1019 7 11 N/A
6:53 pm 18:53 Cloudy 27 -3 21 -6 80 80 NNW 12 19 30.11 1020 7 11 N/A
7:49 pm 19:49 Cloudy 27 -3 19 -7 74 74 NW 15 24 30.14 1021 8 13 N/A
8:51 pm 20:51 Cloudy 25 -4 18 -8 74 74 NW 16 26 30.18 1022 8 13 N/A
9:55 pm 21:55 Cloudy 21 -6 16 -9 80 80 NW 14 22 30.19 1022 10 16 N/A

Powered by AerisWeather